Oklahoma City, OK

11:14 AM CST on February 20, 2017 (GMT -0600)
Will Rogers World

Weather History for KOKC - March, 2014

Change the Weather History Date:

Saturday, March 15, 2014

  Actual Average Record
Temperature  
Mean Temperature 56 °F 52 °F  
Max Temperature 64 °F 63 °F 84 °F (1943)
Min Temperature 48 °F 41 °F 13 °F (1895)
Degree Days  
Heating Degree Days 9 13  
Month to date heating degree days 316 230  
Since 1 July heating degree days 3404 2980  
Cooling Degree Days 0 0  
Month to date cooling degree days 0 0  
Year to date cooling degree days 0 1  
Growing Degree Days 6 (Base 50)    
Moisture  
Dew Point 50 °F    
Average Humidity 70    
Maximum Humidity 93    
Minimum Humidity 46    
Precipitation  
Precipitation 0.49 in 0.10 in 2.34 in (1944)
Month to date precipitation 0.84 1.38  
Year to date precipitation 1.27 4.35  
Snow  
Snow 0.00 in 0.10 in 0.50 in (1924)
Month to date snowfall 1.5 0.6  
Since 1 July snowfall 10.2 7.3  
Snow Depth 0.00 in    
Sea Level Pressure  
Sea Level Pressure 29.83 in    
Wind  
Wind Speed 9 mph (SSE)    
Max Wind Speed 26 mph    
Max Gust Speed 33 mph    
Visibility 9 miles    
Events Rain    
T = Trace of Precipitation, MM = Missing Value Source: NWS Daily Summary

Daily Weather History Graph

Daily Weather History Graph

Search for Another Location

Airport or City:

Trip Planner

Search our weather history database for the weather conditions in past years. The results will help you decide how hot, cold, wet, or windy it might be!

Date:

Astronomy

Mar. 15, 2014 Rise Set
Actual Time 7:41 AM CDT 7:38 PM CDT
Civil Twilight 7:15 AM CDT 8:03 PM CDT
Nautical Twilight 6:46 AM CDT 8:32 PM CDT
Astronomical Twilight 6:16 AM CDT 9:02 PM CDT
Moon 6:58 PM CDT (3/15) 6:52 AM CDT (3/15)
Length of Visible Light 12h 47m
Length of Day
11h 56m
Waxing Gibbous, 99% of the Moon is Illuminated
Mar 15
Waxing Gibbous
Mar 16
Full
Mar 23
Last Quarter
Mar 30
New
Apr 7
First Quarter

Hourly Weather History & Observations

Time (CDT) Temp. Dew Point Humidity Pressure Visibility Wind Dir Wind Speed Gust Speed Precip Events Conditions
12:52 AM 53.1 °F 33.1 °F 47% 29.96 in 10.0 mi SSE 4.6 mph - N/A   Scattered Clouds
1:52 AM 50.0 °F 37.9 °F 63% 29.94 in 10.0 mi SE 4.6 mph - N/A   Scattered Clouds
2:52 AM 50.0 °F 39.9 °F 68% 29.94 in 10.0 mi SE 5.8 mph - N/A   Scattered Clouds
3:52 AM 50.0 °F 43.0 °F 77% 29.91 in 10.0 mi SE 6.9 mph - N/A   Mostly Cloudy
4:52 AM 50.0 °F 45.0 °F 83% 29.89 in 10.0 mi ESE 8.1 mph - N/A   Mostly Cloudy
5:52 AM 50.0 °F 46.0 °F 86% 29.88 in 10.0 mi SSE 6.9 mph - N/A   Mostly Cloudy
6:52 AM 53.1 °F 48.0 °F 83% 29.86 in 10.0 mi SE 10.4 mph - N/A   Mostly Cloudy
7:52 AM 51.1 °F 48.0 °F 89% 29.87 in 9.0 mi SE 8.1 mph - N/A   Mostly Cloudy
8:52 AM 55.0 °F 50.0 °F 83% 29.88 in 9.0 mi SSE 10.4 mph - N/A   Mostly Cloudy
9:52 AM 57.0 °F 52.0 °F 83% 29.85 in 9.0 mi SSE 11.5 mph - 0.00 in   Overcast
10:34 AM 59.0 °F 53.6 °F 82% 29.88 in 8.0 mi South 13.8 mph 19.6 mph N/A   Mostly Cloudy
10:52 AM 59.0 °F 53.1 °F 81% 29.86 in 8.0 mi South 11.5 mph - N/A   Overcast
11:52 AM 60.1 °F 54.0 °F 80% 29.85 in 8.0 mi SSW 11.5 mph - N/A   Mostly Cloudy
12:00 PM 60.8 °F 53.6 °F 77% 29.86 in 10.0 mi SSW 10.4 mph - N/A   Mostly Cloudy
12:52 PM 62.1 °F 48.9 °F 62% 29.82 in 10.0 mi SSW 12.7 mph 25.3 mph N/A   Overcast
1:52 PM 63.0 °F 48.9 °F 60% 29.75 in 10.0 mi South 15.0 mph - 0.00 in   Overcast
2:52 PM 62.1 °F 52.0 °F 70% 29.75 in 10.0 mi ESE 17.3 mph 25.3 mph 0.00 in Rain Light Rain
2:59 PM 60.8 °F 53.6 °F 77% 29.76 in 8.0 mi ESE 12.7 mph 25.3 mph 0.00 in Rain Light Rain
3:24 PM 60.8 °F 53.6 °F 77% 29.76 in 10.0 mi SE 9.2 mph - 0.00 in   Overcast
3:52 PM 60.1 °F 54.0 °F 80% 29.75 in 10.0 mi East 4.6 mph - 0.00 in   Overcast
4:01 PM 60.8 °F 53.6 °F 77% 29.76 in 10.0 mi East 4.6 mph - N/A   Overcast
4:52 PM 57.0 °F 53.1 °F 87% 29.78 in 3.0 mi SW 3.5 mph - 0.04 in Rain Rain
5:36 PM 55.4 °F 53.6 °F 94% 29.79 in 3.0 mi South 4.6 mph - 0.06 in Rain Rain
5:52 PM 55.9 °F 53.1 °F 90% 29.78 in 4.0 mi South 8.1 mph - 0.09 in Rain Light Rain
6:52 PM 55.9 °F 53.1 °F 90% 29.76 in 4.0 mi ESE 6.9 mph - 0.09 in Rain Light Rain
7:52 PM 54.0 °F 52.0 °F 93% 29.75 in 10.0 mi ESE 10.4 mph - 0.00 in   Overcast
8:22 PM 53.6 °F 51.8 °F 94% 29.77 in 10.0 mi SE 4.6 mph - N/A   Overcast
8:52 PM 54.0 °F 51.1 °F 90% 29.76 in 10.0 mi NNE 6.9 mph - N/A   Overcast
9:37 PM 53.6 °F 51.8 °F 94% 29.79 in 10.0 mi North 5.8 mph - N/A   Overcast
9:52 PM 54.0 °F 51.1 °F 90% 29.78 in 9.0 mi NW 5.8 mph - N/A   Overcast
10:52 PM 54.0 °F 51.1 °F 90% 29.78 in 9.0 mi Calm Calm - N/A   Overcast
11:47 PM 53.6 °F 51.8 °F 94% 29.82 in 5.0 mi West 11.5 mph - 0.04 in Rain Rain
11:52 PM 54.0 °F 52.0 °F 93% 29.81 in 4.0 mi WNW 10.4 mph - 0.05 in Rain Rain